Regional Weather Roundup
Issued by NWS

Home | Current Version | Previous Version | Graphics & Text | Print | Product List | Glossary On
Versions: 1 2 3 4 5 6 7 8 9 10 11 12 13 14 15 16 17 18 19 20 21 22 23 24 25 26 27 28 29 30 31 32 33 34 35 36 37 38 39 40 41 42 43 44 45 46 47 48 49 50
000
ASUS43 KTOP 140359
RWRKS

WEATHER ROUNDUP FOR KANSAS
NATIONAL WEATHER SERVICE GOODLAND KS
1000 PM CST WED DEC 13 2017

NOTE:  "FAIR" INDICATES FEW OR NO CLOUDS BELOW 12,000 FEET WITH NO
SIGNIFICANT WEATHER AND/OR OBSTRUCTIONS TO VISIBILITY.

KSZ001>006-013>018-027>032-041>047-140500-
NORTHWEST KANSAS

CITY           SKY/WX    TMP DP  RH WIND       PRES   REMARKS
GOODLAND       CLOUDY    34  16  47 NW7       30.06R
HAYS           CLEAR     35  18  49 NW8       30.02R
HILL CITY      CLOUDY    32  19  58 NW6       30.04R
RUSSELL        CLEAR     33  21  61 NW8       29.99R
$$

KSZ061>065-074>080-084>089-140500-
SOUTHWEST KANSAS

CITY           SKY/WX    TMP DP  RH WIND       PRES   REMARKS
DODGE CITY     CLOUDY    42  16  34 N10       30.02R
GARDEN CITY    CLOUDY    42  15  33 NE10      30.03R
GREAT BEND     CLEAR     28  16  60 W9        30.01R
LIBERAL        CLOUDY    44  17  33 N9        30.03R
$$

KSZ066>073-081>083-090>101-140500-
SOUTHEAST KANSAS

CITY           SKY/WX    TMP DP  RH WIND       PRES   REMARKS
CHANUTE        CLEAR     43  26  51 NW6       29.94R
COFFEYVILLE    CLEAR     40  26  57 N8        29.93R
HUTCHINSON     CLEAR     43  24  47 N12       29.97R
MEDICINE LODGE   N/A     47  21  35 N13G26    29.98R
NEWTON         CLEAR     36  22  56 N9        29.97R
PARSONS        CLEAR     39  25  57 N6        29.94R
WICHITA INTL   PTCLDY    43  24  47 NW10      29.96R
WICHITA JABRA  CLEAR     39  24  55 N9        29.96R
WICHITA MCCONL CLEAR     45  22  41 N10       29.96R
WINFIELD       PTCLDY    40  25  55 NW5       29.97R
$$

KSZ007>012-019>026-033>040-048>060-102>105-140500-
NORTHEAST KANSAS

CITY           SKY/WX    TMP DP  RH WIND       PRES   REMARKS
CONCORDIA      CLEAR     36  25  64 W7        29.99R
EMPORIA        CLEAR     38  24  57 N7        29.95R
LAWRENCE       CLEAR     41  28  60 N12       29.96R
MANHATTAN      CLEAR     41  26  55 N8        29.99R
OLATHE IND     CLEAR     39  28  64 N13       29.94R WCI  31
OLATHE EXE     CLEAR     40  28  62 N14G21    29.93R WCI  32
SALINA         CLEAR     36  22  56 NW5       29.99R
TOPEKA BILLARD CLEAR     39  29  67 VRB6      29.98R
TOPEKA FORBES  CLEAR     42  29  59 N6        29.97R
$$




USA.gov is the U.S. government's official web portal to all federal, state and local government web resources and services.